www.pogodaiklimat.ru

Погода и климат >> Архив погоды >> Гренландия >> Kap Morris Jesup


ПОГОДА в Kap Morris Jesup

  • Прогноз погоды в Kap Morris Jesup
  • Монитор погоды в Kap Morris Jesup

АРХИВ ПОГОДЫ в Kap Morris Jesup

Время (UTC), дата Ветер
(напр.,м/с)
 
Видим.   Явления Облачность Т
(С)
Тd
(С)
f
(%)
Тe
(С)
Тes
(С)
Комфортность P
(гПа)
Po
(гПа)
Тmin
(С)
Tmax
(С)
R
(мм)
R24
(мм)
S
(см)
07 12.05 З 2 н/о н/о -8.9 -11.3 83 -13 -13 1027.8 1027.3
08 12.05 З 1 н/о н/о -8.1 -11.5 76 -10 -10 1028.3 1027.8
09 12.05 ЮЗ 2 н/о н/о -6.8 -11.1 71 -10 -10 1028.6 1028.1
10 12.05 З 3 н/о н/о -6.4 -9.5 79 -11 -11 1028.5 1028.0
11 12.05 З 2 н/о н/о -5.7 -8.5 81 -10 -10 1028.8 1028.3
12 12.05 В 1 н/о н/о -6.4 -9.5 79 -9 -9 1028.9 1028.4
13 12.05 В 1 н/о н/о -6.2 -9.5 77 -9 -9 1028.9 1028.4
14 12.05 В 2 н/о н/о -6.2 -9.0 81 -10 -10 1028.8 1028.3
15 12.05 В 2 н/о н/о -6.3 -9.3 79 -11 -11 1028.9 1028.4
16 12.05 В 2 н/о н/о -5.8 -9.1 77 -10 -10 1028.6 1028.1
17 12.05 В 2 н/о н/о -5.8 -9.0 78 -10 -10 1028.2 1027.7
18 12.05 В 4 н/о н/о -4.8 -8.7 74 -11 -11 1027.9 1027.4
19 12.05 В 2 н/о н/о -4.6 -8.5 74 -8 -8 1027.8 1027.3
20 12.05 В 2 н/о н/о -5.1 -8.8 75 -8 -8 1027.7 1027.2
21 12.05 В 2 н/о н/о -4.6 -9.0 71 -9 -9 1027.6 1027.1
22 12.05 В 3 н/о н/о -5.9 -9.6 75 -11 -11 1027.2 1026.7
23 12.05 З 2 н/о н/о -5.6 -8.9 78 -9 -9 1027.0 1026.5
00 13.05 ЮЗ 3 н/о н/о -7.1 -10.7 75 -12 -12 1026.9 1026.4
01 13.05 З 1 н/о н/о -5.5 -9.3 75 -6 -6 1026.8 1026.3
02 13.05 ЮЗ 2 н/о н/о -6.5 -11.0 70 -10 -10 1026.5 1026.0
03 13.05 ЮЗ 3 н/о н/о -7.1 -11.2 72 -12 -12 1026.2 1025.7
04 13.05 ЮЗ 3 н/о н/о -7.0 -10.8 74 -13 -13 1025.8 1025.3
06 13.05 ЮЗ 2 н/о н/о -5.5 -10.0 71 -9 -9 1025.5 1025.0
07 13.05 В 2 н/о н/о -10.0 -12.9 79 -15 -15 1025.4 1024.9
08 13.05 ЮВ 1 н/о н/о -8.0 -11.6 75 -10 -10 1025.5 1025.0
09 13.05 ЮЗ 1 н/о н/о -4.7 -8.6 74 -7 -7 1025.1 1024.6
10 13.05 В 1 н/о н/о -7.7 -11.6 74 -8 -8 1025.0 1024.5
11 13.05 В 2 н/о н/о -8.9 -11.8 79 -13 -13 1024.9 1024.4
12 13.05 В 2 н/о н/о -8.5 -11.4 80 -12 -12 1024.8 1024.3
13 13.05 В 3 н/о н/о -8.7 -11.3 81 -14 -14 1024.8 1024.3
14 13.05 В 3 н/о н/о -8.6 -11.2 81 -14 -14 1024.6 1024.1
15 13.05 В 2 н/о н/о -8.2 -11.1 80 -12 -12 1024.4 1023.9
16 13.05 В 2 н/о н/о -8.5 -11.0 82 -13 -13 1024.2 1023.7
17 13.05 В 3 н/о н/о -8.5 -10.8 83 -14 -14 1023.9 1023.4
18 13.05 В 2 н/о н/о -8.6 -10.9 83 -13 -13 1023.8 1023.3
19 13.05 В 2 н/о н/о -8.5 -10.8 83 -13 -13 1023.8 1023.3
20 13.05 В 2 н/о н/о -8.5 -10.7 84 -12 -12 1023.9 1023.4
21 13.05 В 1 н/о н/о -8.6 -10.6 85 -11 -11 1024.1 1023.6
22 13.05 В 1 н/о н/о -8.3 -10.3 85 -9 -9 1024.2 1023.7
23 13.05 В 2 н/о н/о -9.5 -10.5 92 -14 -14 1024.3 1023.8
00 14.05 В 1 н/о н/о -8.8 -9.7 93 -11 -11 1024.3 1023.8
01 14.05 З 2 н/о н/о -8.0 -8.7 95 -13 -13 1024.3 1023.8
02 14.05 З 3 н/о н/о -7.5 -8.4 93 -13 -13 1024.4 1023.9
03 14.05 СЗ 3 н/о н/о -7.6 -8.5 93 -13 -13 1024.8 1024.3
04 14.05 СЗ 4 н/о н/о -8.1 -9.1 92 -15 -15 1024.6 1024.1
05 14.05 СЗ 4 н/о н/о -8.1 -9.1 92 -15 -15 1024.8 1024.3
06 14.05 СЗ 4 н/о н/о -8.7 -9.8 92 -15 -15 1024.9 1024.4
07 14.05 СЗ 4 н/о н/о -9.0 -10.1 92 -16 -16 1025.1 1024.6
08 14.05 0 н/о н/о -8.4 -9.5 92 1025.2 1024.7
09 14.05 З 6 н/о н/о -8.4 -9.5 92 -17 -17 1025.2 1024.7
10 14.05 З 6 н/о н/о -8.7 -10.0 90 -17 -17 1025.4 1024.9
11 14.05 З 6 н/о н/о -9.0 -10.3 90 -18 -18 1025.6 1025.1
12 14.05 З 6 н/о н/о -9.1 -10.5 90 -18 -18 1025.7 1025.2
13 14.05 З 6 н/о н/о -9.5 -10.9 90 -18 -18 1025.8 1025.3
14 14.05 З 6 н/о н/о -9.0 -10.4 90 -18 -18 1025.8 1025.3
15 14.05 З 9 н/о н/о -8.8 -10.5 87 -19 -19 1025.8 1025.3
16 14.05 СЗ 8 н/о н/о -8.6 -10.7 85 -18 -18 1025.6 1025.1
17 14.05 З 7 н/о н/о -8.5 -11.0 82 -17 -17 1025.4 1024.9
18 14.05 З 8 н/о н/о -8.0 -10.6 82 -17 -17 1025.5 1025.0
19 14.05 СЗ 8 н/о н/о -8.1 -10.3 84 -18 -18 1025.6 1025.1
20 14.05 СЗ 7 н/о н/о -7.8 -10.1 84 -16 -16 1025.8 1025.3
21 14.05 З 7 н/о н/о -7.8 -10.3 82 -17 -17 1025.8 1025.3
22 14.05 З 6 н/о н/о -7.9 -10.1 84 -16 -16 1025.7 1025.2
23 14.05 З 7 н/о н/о -8.5 -11.0 82 -17 -17 1025.7 1025.2
00 15.05 З 7 н/о н/о -8.6 -10.9 83 -17 -17 1025.9 1025.4
01 15.05 З 7 н/о н/о -8.5 -10.7 84 -17 -17 1025.8 1025.3
02 15.05 З 6 н/о н/о -8.5 -10.7 84 -17 -17 1025.9 1025.4
03 15.05 З 7 н/о н/о -8.2 -10.4 84 -17 -17 1025.9 1025.4
04 15.05 З 7 н/о н/о -8.2 -10.1 86 -17 -17 1025.7 1025.2
05 15.05 З 7 н/о н/о -8.2 -9.9 88 -17 -17 1025.6 1025.1
06 15.05 З 8 н/о н/о -8.3 -10.2 86 -18 -18 1025.6 1025.1
07 15.05 З 7 н/о н/о -8.3 -10.3 85 -17 -17 1025.7 1025.2
08 15.05 З 8 н/о н/о -8.2 -10.2 85 -18 -18 1025.9 1025.4
09 15.05 З 8 н/о н/о -8.3 -10.5 84 -18 -18 1025.8 1025.3
10 15.05 З 9 н/о н/о -8.2 -10.5 83 -18 -18 1026.0 1025.5
11 15.05 З 8 н/о н/о -8.1 -10.3 84 -17 -17 1026.0 1025.5
12 15.05 З 8 н/о н/о -8.0 -10.0 85 -17 -17 1026.0 1025.5
13 15.05 З 8 н/о н/о -7.9 -10.2 84 -17 -17 1025.9 1025.4
14 15.05 З 9 н/о н/о -8.4 -10.9 82 -18 -18 1026.0 1025.5
15 15.05 З 8 н/о н/о -8.6 -10.9 83 -18 -18 1026.0 1025.5
16 15.05 З 9 н/о н/о -8.7 -11.1 83 -19 -19 1025.8 1025.3
17 15.05 З 8 н/о н/о -8.9 -11.3 83 -19 -19 1025.7 1025.2
18 15.05 З 8 н/о н/о -9.1 -11.4 83 -19 -19 1025.7 1025.2
19 15.05 З 8 н/о н/о -9.3 -11.4 85 -19 -19 1025.8 1025.3
20 15.05 З 7 н/о н/о -9.6 -11.6 85 -19 -19 1025.9 1025.4
21 15.05 З 7 н/о н/о -9.8 -12.1 83 -19 -19 1025.9 1025.4
22 15.05 З 6 н/о н/о -9.8 -11.9 85 -18 -18 1026.0 1025.5
23 15.05 З 6 н/о н/о -10.1 -12.1 85 -19 -19 1025.9 1025.4
00 16.05 З 6 н/о н/о -10.2 -12.0 87 -19 -19 1025.8 1025.3
01 16.05 З 5 н/о н/о -10.1 -12.2 85 -18 -18 1025.8 1025.3
02 16.05 З 5 н/о н/о -10.3 -12.6 83 -18 -18 1025.5 1025.0
03 16.05 З 6 н/о н/о -10.4 -12.5 85 -19 -19 1025.4 1024.9
04 16.05 З 5 н/о н/о -10.4 -12.4 85 -18 -18 1025.2 1024.7
05 16.05 З 5 н/о н/о -10.4 -12.4 85 -18 -18 1024.9 1024.4
06 16.05 З 5 н/о н/о -10.5 -12.6 85 -18 -18 1024.8 1024.3
07 16.05 З 4 н/о н/о -10.8 -12.7 86 -17 -17 1024.9 1024.4
08 16.05 З 4 н/о н/о -10.6 -12.8 84 -17 -17 1024.9 1024.4
09 16.05 З 3 н/о н/о -10.7 -12.9 84 -17 -17 1024.7 1024.2
10 16.05 З 3 н/о н/о -10.5 -12.9 82 -17 -17 1024.5 1024.0
11 16.05 З 2 н/о н/о -10.0 -12.9 79 -15 -15 1024.4 1023.9
12 16.05 З 2 н/о н/о -10.0 -12.7 81 -14 -14 1024.4 1023.9
13 16.05 СЗ 1 н/о н/о -8.5 -12.6 72 -9 -9 1024.3 1023.8
14 16.05 ЮЗ 1 н/о н/о -7.6 -12.6 67 -8 -8 1024.3 1023.8
15 16.05 В 1 н/о н/о -8.4 -12.5 72 -11 -11 1024.3 1023.8
16 16.05 Ю 1 н/о н/о -9.0 -12.5 76 -11 -11 1024.3 1023.8
17 16.05 штиль 0 н/о н/о -6.1 -12.3 61 -7 -7 1024.1 1023.6
18 16.05 Ю 1 н/о н/о -9.8 -13.3 76 -12 -12 1024.1 1023.6
19 16.05 ЮВ 1 н/о н/о -9.5 -13.0 76 -10 -10 1024.3 1023.8
20 16.05 ЮВ 1 н/о н/о -9.8 -12.7 79 -12 -12 1024.5 1024.0
21 16.05 В 3 н/о н/о -9.0 -11.0 85 -14 -14 1024.7 1024.2
22 16.05 В 2 н/о н/о -9.1 -10.8 87 -14 -14 1025.0 1024.5
23 16.05 В 2 н/о н/о -9.0 -10.6 88 -13 -13 1025.1 1024.6
00 17.05 ЮВ 1 н/о н/о -9.2 -10.6 90 -12 -12 1025.3 1024.8
01 17.05 Ю 1 н/о н/о -9.3 -10.6 90 -12 -12 1025.8 1025.3
02 17.05 ЮЗ 3 н/о н/о -10.8 -12.2 89 -17 -17 1025.9 1025.4
03 17.05 ЮЗ 3 н/о н/о -10.4 -11.9 89 -16 -16 1026.4 1025.9
04 17.05 З 2 н/о н/о -9.8 -11.3 89 -14 -14 1026.6 1026.1
05 17.05 З 3 н/о н/о -9.4 -10.9 89 -15 -15 1026.9 1026.4
06 17.05 З 3 н/о н/о -9.1 -10.9 87 -15 -15 1027.2 1026.7
07 17.05 З 4 н/о н/о -9.0 -10.8 87 -16 -16 1027.4 1026.9
08 17.05 З 5 н/о н/о -8.8 -10.7 86 -16 -16 1027.8 1027.3
09 17.05 З 5 н/о н/о -8.6 -10.6 85 -16 -16 1028.1 1027.6
10 17.05 З 5 н/о н/о -8.4 -10.4 85 -16 -16 1028.4 1027.9
11 17.05 З 5 н/о н/о -8.3 -10.3 85 -16 -16 1028.6 1028.1
12 17.05 З 5 н/о н/о -8.3 -10.3 85 -16 -16 1028.8 1028.3
13 17.05 З 6 н/о н/о -8.3 -10.5 84 -16 -16 1029.0 1028.5
14 17.05 З 6 н/о н/о -8.3 -10.5 84 -16 -16 1029.2 1028.7
15 17.05 З 5 н/о н/о -8.3 -10.8 82 -16 -16 1029.4 1028.9
16 17.05 З 5 н/о н/о -8.3 -10.8 82 -16 -16 1029.3 1028.8
17 17.05 З 5 н/о н/о -8.3 -10.8 82 -16 -16 1029.3 1028.8
18 17.05 З 4 н/о н/о -8.4 -10.7 83 -15 -15 1029.5 1029.0
20 17.05 З 4 н/о н/о -8.4 -10.7 83 -15 -15 1029.6 1029.1
21 17.05 З 4 н/о н/о -8.6 -10.7 85 -16 -16 1030.0 1029.5
22 17.05 З 4 н/о н/о -9.0 -11.1 85 -16 -16 1030.2 1029.7
23 17.05 З 5 н/о н/о -9.0 -11.1 85 -16 -16 1030.3 1029.8
00 18.05 З 5 н/о н/о -8.6 -10.7 85 -16 -16 1030.5 1030.0
01 18.05 З 4 н/о н/о -8.6 -10.7 85 -16 -16 1030.8 1030.3
02 18.05 З 5 н/о н/о -8.6 -10.7 85 -16 -16 1030.9 1030.4
03 18.05 З 5 н/о н/о -8.6 -10.9 83 -16 -16 1031.2 1030.7
04 18.05 З 4 н/о н/о -8.5 -10.8 83 -15 -15 1031.3 1030.8
05 18.05 З 4 н/о н/о -8.5 -10.8 83 -15 -15 1031.5 1031.0
06 18.05 З 4 н/о н/о -8.5 -10.8 83 -15 -15 1031.6 1031.1
07 18.05 З 4 н/о н/о -8.3 -10.8 82 -15 -15 1031.8 1031.3
08 18.05 З 4 н/о н/о -8.3 -10.6 83 -15 -15 1032.1 1031.6
09 18.05 З 4 н/о н/о -8.2 -10.5 83 -15 -15 1032.5 1032.0
10 18.05 З 4 н/о н/о -8.1 -10.7 82 -15 -15 1032.8 1032.3
11 18.05 З 3 н/о н/о -7.8 -10.6 80 -14 -14 1033.0 1032.5
12 18.05 З 3 н/о н/о -8.1 -10.9 80 -13 -13 1033.1 1032.6
13 18.05 З 2 н/о н/о -8.0 -11.4 76 -12 -12 1033.2 1032.7
14 18.05 З 2 н/о н/о -8.0 -11.3 77 -12 -12 1033.2 1032.7
15 18.05 З 2 н/о н/о -8.1 -11.2 78 -13 -13 1033.2 1032.7
16 18.05 З 2 н/о н/о -8.1 -11.4 77 -12 -12 1033.4 1032.9
17 18.05 З 1 н/о н/о -8.0 -11.6 75 -10 -10 1033.3 1032.8
18 18.05 ЮЗ 1 н/о н/о -8.3 -11.9 75 -11 -11 1033.1 1032.6
19 18.05 ЮЗ 2 н/о н/о -9.4 -12.8 76 -14 -14 1033.1 1032.6
20 18.05 ЮЗ 3 н/о н/о -10.5 -13.7 77 -16 -16 1033.0 1032.5
21 18.05 ЮЗ 2 н/о н/о -10.7 -14.0 77 -15 -15 1033.2 1032.7
22 18.05 ЮЗ 2 н/о н/о -10.2 -12.6 83 -14 -14 1033.1 1032.6
23 18.05 ЮВ 1 н/о н/о -9.7 -11.0 90 -12 -12 1032.9 1032.4
00 19.05 В 2 н/о н/о -9.8 -10.5 95 -14 -14 1033.0 1032.5
01 19.05 В 2 н/о н/о -10.0 -11.1 92 -14 -14 1033.0 1032.5
02 19.05 В 2 н/о н/о -10.4 -11.7 90 -14 -14 1032.9 1032.4
03 19.05 В 3 н/о н/о -11.1 -12.5 89 -17 -17 1032.7 1032.2
04 19.05 0 н/о н/о -10.9 -12.3 89 1032.6 1032.1
05 19.05 ЮВ 2 н/о н/о -11.0 -12.5 89 -15 -15 1032.5 1032.0
06 19.05 0 н/о н/о -11.2 -12.9 87 1032.3 1031.8
07 19.05 0 н/о н/о -11.4 -13.2 86 1032.1 1031.6

 

Местоположение метеостанции Kap Morris Jesup (Гренландия): широта 83.65 долгота -33.36 высота над уровнем моря 4 м.

В архиве по умолчанию представлена погода в Kap Morris Jesup за последнюю неделю. Архивные данные за месяц целиком и за предыдущие месяцы, начиная с января 2011 года, Вы можете получить, выбрав интересующий диапазон дат из раскрывающегося списка и нажав кнопку "Ввод!".


*Определитесь, кто Вы:
робот инопланетянин человек

Внимание! Время в таблицах - всемирное. Для получения местного времени необходимо прибавить поправку, которая равна -3 ч.

Смотрите также архив погоды в соседних городах и на ближайших метеорологических станциях:

Погода в Station Nord aws (Гренландия) (327 км)
Погода в Алерте (Нунавут, Канада) (404 км)
Погода в Henrik Kroeyer Holm (Гренландия) (443 км)
Погода в Danmarkshavn (Гренландия) (808 км)
Погода на Верлегенхукен (Норвегия) (841 км)
Погода в Юрике (Нунавут, Канада) (883 км)
Погода в Юрике (Нунавут, Канада) (884 км)
Погода в Ню-Олесунн (Норвегия) (889 км)
Погода на Острове Карла XII (Норвегия) (898 км)
Погода в Mittarfik Qaanaaq (Гренландия) (919 км)

Пояснения к столбцам:

Ветер - указаны скорость ветра в м/с - средняя за 10 мин, порывы в срок и между сроками (в фигурных скобках) и направление, откуда дует ветер: С - северный, СВ - северо-восточный, В - восточный, ЮВ - юго-восточный, Ю - южный, ЮЗ - юго-западный, З - западный, СЗ - северо-западный.
Видимость - горизонтальная дальность видимости в метрах или километрах. При видимости от 1 до 10 км при отсутствии осадков обычно наблюдается дымка, при ухудшении видимости до 1 км и менее - туман. В сухую погоду видимость может ухудшаться дымом, пылью или мглою.
Явления - указаны атмосферные явления, наблюдавшиеся в срок или в последний час перед сроком; фигурными скобками обозначены явления, наблюдавшиеся между сроками (за 1-3 часа до срока); квадратными скобками обозначены град или гололедные отложения с указанием их диаметра в мм.
Облачность - указаны через наклонную черту общая и нижняя облачность в баллах и высота нижней границы облаков в метрах; квадратными скобками обозначены формы облаков: Ci - перистые, Cs - перисто-слоистые, Cc - перисто-кучевые, Ac - высококучевые, As - высокослоистые, Sc - слоисто-кучевые, Ns - слоисто-дождевые, Cu - кучевые, Cb - кучево-дождевые. Подробнее классификацию облаков см. в Атласе облаков (PDF).
T - Температура воздуха - температура, измеренная на высоте 2 м над землей.
Td - Температура точки росы - температура, при понижении до которой содержащийся в воздухе водяной пар достигнет насыщения.
f - Относительная влажность воздуха - влажноcть воздуха, измеренная на высоте 2 м над землей.
Te - Эффективная температура - температура, которую ощущает одетый по сезону человек в тени. Характеристика душности погоды. При расчете учитывается влияние влажности воздуха и скорости ветра на теплоощущения человека.
Tes - Эффективная температура на солнце - температура, которую ощущает человек, с поправкой на солнечный нагрев. Характеристика знойности погоды. Зависит от высоты солнца над горизонтом, облачности и скорости ветра. Ночью, в пасмурную погоду, а также при ветре 12 м/с и более поправка равна нулю.
P - Атмосферное давление - приведенное к уровню моря атмосферное давление.
Po - Атмосферное давление - измеренное на уровне метеостанции атмосферное давление.
Tmin - Минимальная температура - минимум температуры воздуха на высоте 2 м над землей.
Tmax - Максимальная температура - максимум температуры воздуха на высоте 2 м над землей.
R - Количество осадков - Количество выпавших осадков за период времени, мм. При наведении курсора мыши на число - период времени, за который выпало указанное количество осадков.
R24 - Количество осадков - Количество выпавших осадков за 24 часа, мм.
S - Снежный покров - Высота снежного покрова, см. При наведении курсора мыши на число - состояние снежного покрова и степень покрытия местности в баллах.